Bullhead City, AZ

1:14 AM MST on October 23, 2017 (GMT -0700)
Laughlin-Bullhead International

Weather History for KIFP - July, 2013

Change the Weather History Date:

Friday, July 5, 2013

  Actual Average Record
Temperature  
Mean Temperature 97 °F -  
Max Temperature 105 °F 105 °F 121 °F (1989)
Min Temperature 89 °F 83 °F 61 °F (1988)
Cooling Degree Days 32    
Growing Degree Days 47 (Base 50)    
Moisture  
Dew Point 52 °F    
Average Humidity 22    
Maximum Humidity 34    
Minimum Humidity 12    
Precipitation  
Precipitation 0.00 in - - ()
Sea Level Pressure  
Sea Level Pressure 29.66 in    
Wind  
Wind Speed 10 mph (South)    
Max Wind Speed 24 mph    
Max Gust Speed 32 mph    
Visibility 10 miles    
Events      
Averages and records for this station are not official NWS values.
T = Trace of Precipitation, MM = Missing Value Source: NWS Daily Summary

Daily Weather History Graph

Daily Weather History Graph

Search for Another Location

Airport or City:

Trip Planner

Search our weather history database for the weather conditions in past years. The results will help you decide how hot, cold, wet, or windy it might be!

Date:

Astronomy

Jul. 05, 2013 Rise Set
Actual Time 5:29 AM MST 7:56 PM MST
Civil Twilight 5:00 AM MST 8:25 PM MST
Nautical Twilight 4:23 AM MST 9:01 PM MST
Astronomical Twilight 3:43 AM MST 9:41 PM MST
Moon 3:29 AM MST (7/5) 5:56 PM MST (7/5)
Length of Visible Light 15h 25m
Length of Day
14h 26m
Waning Crescent, 6% of the Moon is Illuminated
Jul 5
Waning Crescent
Jul 8
New
Jul 15
First Quarter
Jul 22
Full
Jul 29
Last Quarter

Hourly Weather History & Observations

Time (MST) Temp. Heat Index Dew Point Humidity Pressure Visibility Wind Dir Wind Speed Gust Speed Precip Events Conditions
12:15 AM 96.8 °F 95.1 °F 55.4 °F 25% 29.64 in 10.0 mi SSW 5.8 mph - N/A   Clear
12:35 AM 96.8 °F 95.1 °F 55.4 °F 25% 29.64 in 10.0 mi SSW 6.9 mph - N/A   Clear
12:55 AM 95.0 °F 93.7 °F 57.2 °F 28% 29.64 in 10.0 mi SW 6.9 mph - N/A   Clear
1:15 AM 95.0 °F 93.7 °F 57.2 °F 28% 29.64 in 10.0 mi South 6.9 mph - N/A   Clear
1:35 AM 98.6 °F 97.6 °F 57.2 °F 25% 29.64 in 10.0 mi SSE 16.1 mph 20.7 mph N/A   Clear
1:55 AM 95.0 °F 93.7 °F 57.2 °F 28% 29.64 in 10.0 mi SW 5.8 mph - N/A   Clear
2:15 AM 93.2 °F 92.6 °F 59.0 °F 32% 29.64 in 10.0 mi SSW 8.1 mph - N/A   Clear
2:35 AM 93.2 °F 92.6 °F 59.0 °F 32% 29.64 in 10.0 mi Calm Calm - N/A   Clear
2:55 AM 91.4 °F 90.7 °F 59.0 °F 34% 29.64 in 10.0 mi SSW 9.2 mph - N/A   Clear
3:15 AM 91.4 °F 90.7 °F 59.0 °F 34% 29.64 in 10.0 mi SSW 6.9 mph - N/A   Clear
3:35 AM 91.4 °F 90.7 °F 59.0 °F 34% 29.64 in 10.0 mi SW 4.6 mph - N/A   Clear
3:55 AM 91.4 °F 90.7 °F 59.0 °F 34% 29.65 in 10.0 mi SSW 5.8 mph - N/A   Clear
4:15 AM 91.4 °F 89.9 °F 57.2 °F 31% 29.66 in 10.0 mi SSW 5.8 mph - N/A   Clear
4:35 AM 91.4 °F 89.4 °F 55.4 °F 29% 29.66 in 10.0 mi SW 3.5 mph - N/A   Clear
4:55 AM 89.6 °F 87.7 °F 55.4 °F 31% 29.67 in 10.0 mi SW 4.6 mph - N/A   Clear
5:15 AM 89.6 °F 87.7 °F 55.4 °F 31% 29.67 in 10.0 mi SW 3.5 mph - N/A   Clear
5:35 AM 89.6 °F 87.7 °F 55.4 °F 31% 29.68 in 10.0 mi SW 4.6 mph - N/A   Clear
5:55 AM 89.6 °F 87.7 °F 55.4 °F 31% 29.68 in 10.0 mi SSW 3.5 mph - N/A   Clear
6:15 AM 91.4 °F 89.4 °F 55.4 °F 29% 29.69 in 10.0 mi SW 5.8 mph - N/A   Clear
6:35 AM 89.6 °F 87.7 °F 55.4 °F 31% 29.70 in 10.0 mi SW 3.5 mph - N/A   Clear
6:55 AM 91.4 °F 89.4 °F 55.4 °F 29% 29.70 in 10.0 mi SW 4.6 mph - N/A   Clear
7:15 AM 89.6 °F 87.7 °F 55.4 °F 31% 29.71 in 10.0 mi SW 5.8 mph - N/A   Clear
7:35 AM 91.4 °F 89.4 °F 55.4 °F 29% 29.71 in 10.0 mi SSW 5.8 mph - N/A   Clear
7:55 AM 93.2 °F 90.8 °F 53.6 °F 26% 29.72 in 10.0 mi South 15.0 mph - N/A   Clear
8:15 AM 95.0 °F 92.7 °F 53.6 °F 25% 29.73 in 10.0 mi South 13.8 mph - N/A   Clear
8:35 AM 95.0 °F - 51.8 °F 23% 29.72 in 10.0 mi South 15.0 mph 21.9 mph N/A   Clear
8:55 AM 95.0 °F - 51.8 °F 23% 29.73 in 10.0 mi South 15.0 mph 19.6 mph N/A   Clear
9:15 AM 96.8 °F 94.4 °F 53.6 °F 23% 29.73 in 10.0 mi SSW 12.7 mph - N/A   Clear
9:35 AM 98.6 °F - 51.8 °F 21% 29.72 in 10.0 mi South 15.0 mph 21.9 mph N/A   Clear
9:55 AM 98.6 °F 96.4 °F 53.6 °F 22% 29.72 in 10.0 mi SSW 18.4 mph 23.0 mph N/A   Clear
10:15 AM 100.4 °F - 51.8 °F 20% 29.72 in 10.0 mi SSW 16.1 mph 24.2 mph N/A   Clear
10:35 AM 100.4 °F - 51.8 °F 20% 29.71 in 10.0 mi SSW 20.7 mph 24.2 mph N/A   Clear
10:55 AM 102.2 °F - 50.0 °F 17% 29.71 in 10.0 mi South 18.4 mph 23.0 mph N/A   Clear
11:15 AM 102.2 °F - 51.8 °F 18% 29.71 in 10.0 mi South 18.4 mph 29.9 mph N/A   Clear
11:35 AM 102.2 °F - 51.8 °F 18% 29.72 in 10.0 mi South 18.4 mph 24.2 mph N/A   Clear
11:55 AM 102.2 °F - 51.8 °F 18% 29.72 in 10.0 mi South 12.7 mph 26.5 mph N/A   Clear
12:15 PM 104.0 °F - 51.8 °F 17% 29.72 in 10.0 mi South 17.3 mph 28.8 mph N/A   Clear
12:35 PM 104.0 °F - 51.8 °F 17% 29.71 in 10.0 mi South 16.1 mph 25.3 mph N/A   Clear
12:55 PM 104.0 °F - 50.0 °F 16% 29.71 in 10.0 mi South 17.3 mph 25.3 mph N/A   Clear
1:15 PM 104.0 °F - 50.0 °F 16% 29.71 in 10.0 mi South 16.1 mph 31.1 mph N/A   Partly Cloudy
1:35 PM 102.2 °F - 51.8 °F 18% 29.70 in 10.0 mi South 24.2 mph 28.8 mph N/A   Partly Cloudy
1:55 PM 104.0 °F - 50.0 °F 16% 29.69 in 10.0 mi SSW 18.4 mph 27.6 mph N/A   Clear
2:15 PM 104.0 °F - 48.2 °F 15% 29.68 in 10.0 mi South 18.4 mph 28.8 mph N/A   Clear
2:35 PM 104.0 °F - 46.4 °F 14% 29.67 in 10.0 mi SSE 20.7 mph 32.2 mph N/A   Clear
2:55 PM 104.0 °F - 46.4 °F 14% 29.66 in 10.0 mi South 16.1 mph 26.5 mph N/A   Clear
3:15 PM 104.0 °F - 46.4 °F 14% 29.65 in 10.0 mi South 16.1 mph 23.0 mph N/A   Clear
3:35 PM 105.8 °F - 46.4 °F 14% 29.63 in 10.0 mi South 18.4 mph 25.3 mph N/A   Clear
3:55 PM 105.8 °F - 44.6 °F 13% 29.62 in 10.0 mi South 17.3 mph 26.5 mph N/A   Clear
4:15 PM 105.8 °F - 44.6 °F 13% 29.62 in 10.0 mi South 24.2 mph 27.6 mph N/A   Clear
4:35 PM 105.8 °F - 44.6 °F 13% 29.62 in 10.0 mi South 15.0 mph 24.2 mph N/A   Clear
4:55 PM 104.0 °F - 41.0 °F 12% 29.61 in 10.0 mi South 18.4 mph 27.6 mph N/A   Clear
5:15 PM 104.0 °F - 42.8 °F 12% 29.61 in 10.0 mi SSE 17.3 mph - N/A   Clear
5:35 PM 104.0 °F - 44.6 °F 13% 29.60 in 10.0 mi South 15.0 mph 27.6 mph N/A   Clear
5:55 PM 104.0 °F - 46.4 °F 14% 29.60 in 10.0 mi South 18.4 mph 21.9 mph N/A   Clear
6:15 PM 104.0 °F - 44.6 °F 13% 29.60 in 10.0 mi South 15.0 mph - N/A   Clear
6:35 PM 105.8 °F - 44.6 °F 13% 29.60 in 10.0 mi SSE 20.7 mph 24.2 mph N/A   Clear
6:55 PM 104.0 °F - 46.4 °F 14% 29.60 in 10.0 mi South 17.3 mph 24.2 mph N/A   Clear
7:15 PM 104.0 °F - 44.6 °F 13% 29.60 in 10.0 mi South 18.4 mph 21.9 mph N/A   Clear
7:35 PM 104.0 °F - 44.6 °F 13% 29.60 in 10.0 mi South 17.3 mph 21.9 mph N/A   Clear
7:55 PM 104.0 °F - 44.6 °F 13% 29.61 in 10.0 mi SSE 17.3 mph - N/A   Clear
8:15 PM 102.2 °F - 46.4 °F 15% 29.61 in 10.0 mi SSE 15.0 mph - N/A   Clear
8:35 PM 102.2 °F - 46.4 °F 15% 29.62 in 10.0 mi South 12.7 mph - N/A   Clear
8:55 PM 100.4 °F - 50.0 °F 18% 29.62 in 10.0 mi South 15.0 mph - N/A   Clear
9:15 PM 100.4 °F 98.4 °F 53.6 °F 21% 29.63 in 10.0 mi SSE 13.8 mph - N/A   Clear
9:35 PM 100.4 °F 98.4 °F 53.6 °F 21% 29.64 in 10.0 mi SSE 15.0 mph 19.6 mph N/A   Clear
9:55 PM 98.6 °F 96.4 °F 53.6 °F 22% 29.64 in 10.0 mi SSE 13.8 mph - N/A   Clear
10:15 PM 98.6 °F 96.4 °F 53.6 °F 22% 29.65 in 10.0 mi SSE 15.0 mph - N/A   Clear
10:35 PM 98.6 °F 96.4 °F 53.6 °F 22% 29.65 in 10.0 mi SSE 12.7 mph - N/A   Clear
10:55 PM 98.6 °F - 51.8 °F 21% 29.65 in 10.0 mi SSE 11.5 mph - N/A   Clear
11:15 PM 95.0 °F 92.7 °F 53.6 °F 25% 29.67 in 10.0 mi South 4.6 mph - N/A   Clear
11:35 PM 93.2 °F 90.8 °F 53.6 °F 26% 29.67 in 10.0 mi SSW 4.6 mph - N/A   Clear
11:55 PM 93.2 °F 90.8 °F 53.6 °F 26% 29.68 in 10.0 mi Calm Calm - N/A   Clear